Regional Weather Roundup
Issued by NWS Bismarck, ND

Home | Current Version | Previous Version | Text Only | Print | Product List | Glossary On
Versions: 1 2 3 4 5 6 7 8 9 10 11 12 13 14 15 16 17 18 19 20 21 22 23 24 25 26 27 28 29 30 31 32 33 34 35 36 37 38 39 40 41 42 43 44 45 46 47 48 49 50
000
ASUS43 KBIS 090102
RWRBIS

NWR BROADCAST TEXT
NATIONAL WEATHER SERVICE BISMARCK ND
700 PM CST MON FEB 08 2016

NOTE: "FAIR" INDICATES FEW OR NO CLOUDS BELOW 12,000 FEET WITH NO
SIGNIFICANT WEATHER AND/OR OBSTRUCTIONS TO VISIBILITY.


CITY           SKY/WX    TMP DP  RH WIND       PRES   REMARKS
WILLISTON      CLOUDY    33  21  61 N5        30.29S
MINOT          CLEAR     23  13  65 NW10      30.27R WCI  12
MINOT AFB      CLEAR     22  15  76 CALM      30.27R
BISMARCK       MOCLDY    32  17  54 N13G21    30.25F
DICKINSON      CLOUDY    30  15  53 NW10      30.24S
GARRISON         N/A     27  17  66 NW13      30.26R WCI  16
HETTINGER ARPT CLOUDY    33  11  39 N10       30.25F
JAMESTOWN      CLEAR     18  11  74 N16       30.20R WCI   3
CARRINGTON     FAIR      18  14  86 N10       30.24S WCI   6
HAZEN          CLOUDY    28  18  64 NW13      30.29S WCI  18
LINTON         CLOUDY    28  19  69 N14       30.24F WCI  17
MANDAN         CLOUDY    28  18  64 NW13      30.24F WCI  18
OAKES          FAIR      18  14  86 N15       30.20R WCI   3
STANLEY        CLOUDY    27  23  86 NW7       30.28S WCI  19
WATFORD CITY   CLOUDY    32  18  55 NW5       30.29S
$$

CITY           SKY/WX    TMP DP  RH WIND       PRES   REMARKS
GRAND FORKS    CLOUDY    10   2  69 N20       30.26R WCI  -9
GRAND FORKS AF DRIZZLE   10   3  72 N21       30.25S WCI  -9
DEVILS LAKE    CLEAR     12   8  84 N12       30.24S WCI  -2
FARGO          CLOUDY    11   4  73 N28       30.22F BLWGSNOWWCI -10
GRAFTON        CLOUDY     9   3  78 N18G26    30.28S WCI -10
GWINNER        FAIR      18  12  79 N16       30.20R WCI   3
LANGDON        FAIR       7   3  85 N13       30.21F WCI  -9
$$

CITY           SKY/WX    TMP DP  RH WIND       PRES   REMARKS
ABERDEEN       PTCLDY    26  12  55 N16       30.21R WCI  14
MOBRIDGE       CLOUDY    33  18  53 N16       30.19F
BUFFALO          N/A     37  11  34 N13       30.18F
RAPID CITY     CLOUDY    38  16  40 N9        30.25R
GLASGOW        CLEAR     31  24  75 E8        30.27S
SIDNEY         CLOUDY    34  16  47 CALM      30.29S
WOLF POINT     PTCLDY    32  24  72 CALM      30.29R
GLENDIVE       CLOUDY    36  14  41 CALM      30.29F
MILES CITY     CLOUDY    42  26  53 N3        30.27S
BAKER          CLOUDY    36  12  37 CALM      30.25F
$$

CITY           SKY/WX    TMP DP  RH WIND       PRES   REMARKS
BILLINGS       CLOUDY    49  27  42 W10       30.33S
GREAT FALLS    CLOUDY    47  28  47 W16       30.34R
$$




USA.gov is the U.S. government's official web portal to all federal, state and local government web resources and services.